Weather History for Hillsdale, MI

Change the Weather History Date:

Monday, April 7, 2014

  Actual Average Record
Temperature  
Mean Temperature 43 °F -  
Max Temperature 54 °F 52 °F 80 °F (1954)
Min Temperature 32 °F 29 °F 3 °F (1982)
Degree Days  
Heating Degree Days 22    
Moisture  
Dew Point 29 °F    
Average Humidity 64    
Maximum Humidity 99    
Minimum Humidity 28    
Precipitation  
Precipitation 0.00 in - - ()
Sea Level Pressure  
Sea Level Pressure 29.73 in    
Wind  
Wind Speed 7 mph (ENE)    
Max Wind Speed 22 mph    
Max Gust Speed 28 mph    
Visibility 9 miles    
Events Rain    
Averages and records for this station are not official NWS values.
T = Trace of Precipitation, MM = Missing Value Source: NWS Daily Summary

Daily Weather History Graph

Daily Weather History Graph

Search for Another Location

Airport:

Trip Planner

Search our weather history database for the weather conditions in past years. The results will help you decide how hot, cold, wet, or windy it might be!

Date:

Astronomy

Apr. 07, 2014 Rise Set
Actual Time 7:11 AM EDT 8:10 PM EDT
Civil Twilight 6:42 AM EDT 8:39 PM EDT
Nautical Twilight 6:08 AM EDT 9:13 PM EDT
Astronomical Twilight 5:33 AM EDT 9:48 PM EDT
Moon 1:03 PM EDT (4/7) 2:49 AM EDT (4/7)
Length of Visible Light 13h 56m
Length of Day
12h 59m
First Quarter, 53% of the Moon is Illuminated
Apr 7
First Quarter
Apr 15
Full
Apr 22
Last Quarter
Apr 29
New
May 6
First Quarter

Hourly Weather History & Observations

Time (EDT) Temp. Windchill Dew Point Humidity Pressure Visibility Wind Dir Wind Speed Gust Speed Precip Events Conditions
12:15 AM 37.8 °F 33.3 °F 26.2 °F 63% 29.99 in 10.0 mi East 5.8 mph - N/A   Clear
12:34 AM 38.1 °F 33.7 °F 26.6 °F 63% 29.99 in 10.0 mi East 5.8 mph - N/A   Clear
12:55 AM 38.3 °F 34.8 °F 27.0 °F 64% 29.99 in 10.0 mi East 4.6 mph - N/A   Clear
1:15 AM 38.3 °F 34.8 °F 26.4 °F 62% 29.99 in 10.0 mi ESE 4.6 mph - N/A   Clear
1:34 AM 38.7 °F 34.3 °F 25.9 °F 60% 29.98 in 10.0 mi East 5.8 mph - N/A   Clear
1:55 AM 38.5 °F 33.4 °F 25.2 °F 59% 29.97 in 10.0 mi East 6.9 mph - N/A   Clear
2:14 AM 37.6 °F 32.3 °F 24.8 °F 60% 29.97 in 10.0 mi East 6.9 mph - N/A   Clear
2:35 AM 35.4 °F 32.6 °F 24.4 °F 64% 29.96 in 10.0 mi East 3.5 mph - N/A   Clear
2:55 AM 34.3 °F 31.4 °F 23.7 °F 65% 29.95 in 10.0 mi East 3.5 mph - N/A   Clear
3:14 AM 33.3 °F 27.9 °F 23.4 °F 67% 29.94 in 10.0 mi East 5.8 mph - N/A   Clear
3:35 AM 33.3 °F 27.9 °F 23.2 °F 67% 29.92 in 10.0 mi East 5.8 mph - N/A   Clear
3:55 AM 32.5 °F 26.2 °F 23.9 °F 70% 29.91 in 10.0 mi East 6.9 mph - N/A   Clear
4:14 AM 33.3 °F 27.1 °F 23.7 °F 68% 29.90 in 10.0 mi East 6.9 mph - N/A   Clear
4:35 AM 36.0 °F 30.3 °F 23.2 °F 60% 29.90 in 10.0 mi ESE 6.9 mph - N/A   Clear
4:55 AM 34.5 °F 28.6 °F 23.4 °F 64% 29.88 in 10.0 mi East 6.9 mph - N/A   Clear
5:14 AM 34.5 °F 27.9 °F 23.4 °F 64% 29.86 in 10.0 mi East 8.1 mph - N/A   Clear
5:35 AM 34.9 °F 29.9 °F 23.7 °F 64% 29.86 in 10.0 mi East 5.8 mph - N/A   Clear
5:54 AM 34.2 °F 29.0 °F 23.5 °F 65% 29.86 in 10.0 mi East 5.8 mph - N/A   Clear
6:14 AM 35.4 °F 30.5 °F 24.4 °F 64% 29.85 in 10.0 mi ENE 5.8 mph - N/A   Clear
6:35 AM 36.0 °F 29.6 °F 25.0 °F 64% 29.85 in 10.0 mi East 8.1 mph - N/A   Clear
6:54 AM 36.1 °F 31.4 °F 25.2 °F 64% 29.85 in 10.0 mi East 5.8 mph - N/A   Clear
7:15 AM 37.8 °F 32.5 °F 25.2 °F 60% 29.84 in 10.0 mi East 6.9 mph - N/A   Clear
7:35 AM 37.2 °F 32.6 °F 25.0 °F 61% 29.85 in 10.0 mi East 5.8 mph - N/A   Clear
7:54 AM 37.9 °F 32.7 °F 25.0 °F 60% 29.85 in 10.0 mi East 6.9 mph - N/A   Clear
8:15 AM 39.4 °F 33.2 °F 24.8 °F 56% 29.84 in 10.0 mi East 9.2 mph - N/A   Clear
8:35 AM 39.9 °F 34.5 °F 25.2 °F 56% 29.83 in 10.0 mi East 8.1 mph - N/A   Clear
8:54 AM 40.5 °F 37.3 °F 25.3 °F 55% 29.86 in 10.0 mi East 4.6 mph - N/A   Clear
9:15 AM 41.4 °F 39.4 °F 25.2 °F 53% 29.85 in 10.0 mi ENE 3.5 mph - N/A   Scattered Clouds
9:35 AM 41.4 °F 38.4 °F 25.3 °F 53% 29.84 in 10.0 mi ENE 4.6 mph - N/A   Clear
9:54 AM 41.7 °F 37.3 °F 26.1 °F 54% 29.83 in 10.0 mi East 6.9 mph - N/A   Clear
10:15 AM 43.2 °F 37.4 °F 25.5 °F 50% 29.82 in 10.0 mi East 10.4 mph - N/A   Clear
10:34 AM 44.8 °F 40.4 °F 25.5 °F 47% 29.81 in 10.0 mi ENE 8.1 mph - N/A   Clear
10:54 AM 45.9 °F 41.2 °F 25.2 °F 44% 29.80 in 10.0 mi ENE 9.2 mph - N/A   Clear
11:15 AM 45.9 °F 42.3 °F 25.2 °F 44% 29.78 in 10.0 mi ENE 6.9 mph - N/A   Scattered Clouds
11:34 AM 46.6 °F - 24.3 °F 42% 29.75 in 10.0 mi ENE 6.9 mph - N/A   Mostly Cloudy
11:54 AM 52.0 °F - 24.3 °F 34% 29.73 in 10.0 mi East 16.1 mph 19.6 mph N/A   Scattered Clouds
12:15 PM 51.4 °F - 21.9 °F 32% 29.72 in 10.0 mi East 15.0 mph 19.6 mph N/A   Scattered Clouds
12:34 PM 52.0 °F - 23.4 °F 33% 29.71 in 10.0 mi East 15.0 mph 19.6 mph N/A   Mostly Cloudy
12:55 PM 52.9 °F - 22.1 °F 30% 29.71 in 10.0 mi East 17.3 mph 24.2 mph N/A   Mostly Cloudy
1:15 PM 53.8 °F - 22.6 °F 30% 29.69 in 10.0 mi East 19.6 mph - N/A   Mostly Cloudy
1:34 PM 53.2 °F - 21.7 °F 29% 29.67 in 10.0 mi ENE 21.9 mph 27.6 mph N/A   Mostly Cloudy
1:55 PM 54.3 °F - 22.5 °F 29% 29.66 in 10.0 mi East 15.0 mph 23.0 mph N/A   Mostly Cloudy
2:15 PM 54.7 °F - 22.3 °F 28% 29.63 in 10.0 mi ENE 16.1 mph 21.9 mph N/A   Mostly Cloudy
2:34 PM 54.1 °F - 21.9 °F 29% 29.61 in 10.0 mi ENE 15.0 mph 20.7 mph N/A   Overcast
2:55 PM 54.0 °F - 22.3 °F 29% 29.61 in 10.0 mi ENE 11.5 mph 17.3 mph N/A   Overcast
3:14 PM 54.0 °F - 22.8 °F 30% 29.59 in 10.0 mi ENE 10.4 mph - N/A   Mostly Cloudy
3:34 PM 53.8 °F - 23.0 °F 30% 29.58 in 10.0 mi ENE 10.4 mph 16.1 mph N/A   Scattered Clouds
4:14 PM 52.9 °F - 25.7 °F 35% 29.58 in 10.0 mi ENE 6.9 mph - N/A Rain Light Rain
4:34 PM 51.1 °F - 29.7 °F 44% 29.60 in 10.0 mi East 8.1 mph - N/A Rain Light Rain
4:55 PM 47.8 °F - 35.2 °F 62% 29.61 in 5.0 mi East 6.9 mph - N/A Rain Light Rain
5:14 PM 46.0 °F 43.9 °F 37.6 °F 72% 29.60 in 3.0 mi East 4.6 mph - N/A   Overcast
5:35 PM 45.1 °F 40.8 °F 40.5 °F 84% 29.59 in 7.0 mi East 8.1 mph - N/A Rain Light Rain
5:55 PM 44.2 °F 39.2 °F 39.9 °F 85% 29.56 in 10.0 mi NE 9.2 mph - N/A Rain Light Rain
6:14 PM 44.1 °F 40.8 °F 39.2 °F 83% 29.57 in 10.0 mi NNE 5.8 mph - N/A Rain Light Rain
6:35 PM 43.5 °F 40.1 °F 39.0 °F 84% 29.58 in 10.0 mi NE 5.8 mph - N/A Rain Light Rain
6:55 PM 43.0 °F 39.5 °F 39.4 °F 87% 29.58 in 3.0 mi NNE 5.8 mph - N/A   Overcast
7:14 PM 42.3 °F 37.9 °F 39.7 °F 91% 29.57 in 7.0 mi North 6.9 mph - N/A Rain Light Rain
7:35 PM 42.3 °F 37.3 °F 40.3 °F 93% 29.56 in 5.0 mi North 8.1 mph - N/A Rain Light Rain
7:55 PM 41.7 °F 36.1 °F 40.1 °F 94% 29.54 in 5.0 mi NNE 9.2 mph - N/A Rain Light Rain
8:14 PM 41.7 °F 36.7 °F 40.3 °F 95% 29.54 in 7.0 mi North 8.1 mph - N/A Rain Light Rain
8:35 PM 41.5 °F 36.4 °F 40.3 °F 95% 29.53 in 7.0 mi North 8.1 mph 16.1 mph N/A Rain Light Rain
8:54 PM 41.5 °F 35.4 °F 40.5 °F 96% 29.53 in 7.0 mi North 10.4 mph - N/A Rain Light Rain
9:14 PM 41.7 °F 36.7 °F 40.8 °F 97% 29.53 in 5.0 mi North 8.1 mph - N/A Rain Light Rain
9:35 PM 41.7 °F 36.7 °F 41.0 °F 97% 29.54 in 5.0 mi North 8.1 mph - N/A Rain Light Rain
9:54 PM 41.7 °F 36.1 °F 41.2 °F 98% 29.53 in 5.0 mi North 9.2 mph - N/A Rain Light Rain
10:14 PM 41.7 °F 36.7 °F 41.2 °F 98% 29.52 in 5.0 mi North 8.1 mph - N/A Rain Light Rain
10:35 PM 41.7 °F 36.7 °F 41.2 °F 98% 29.51 in 5.0 mi North 8.1 mph - N/A Rain Light Rain
10:54 PM 41.7 °F 37.3 °F 41.2 °F 98% 29.51 in 3.0 mi North 6.9 mph - N/A   Overcast
11:15 PM 41.7 °F 37.3 °F 41.4 °F 99% 29.50 in 3.0 mi North 6.9 mph - N/A   Overcast
11:35 PM 41.7 °F 36.7 °F 41.2 °F 98% 29.50 in 3.0 mi NNW 8.1 mph - N/A   Overcast
11:54 PM 41.5 °F 35.9 °F 41.2 °F 99% 29.51 in 4.0 mi NNW 9.2 mph - N/A Rain Light Rain